USRRUSHH

Guest
Details From USRR - Surgut
To USHH - Khanty Mansiysk
Flight Number -
Tags Decoded
Created
Modified
Stats Distance 76 nm / 140 km
Max Altitude 0 ft / 0 m
Waypoints 3
Social Downloads 1
Likes 0
Share VATSIM

Download

Looking for another format? Having issues loading an existing format? Contact us
Advertisement - Login to hide

Notes

Decoded

Route

USRR KANER SOGNA

ID Type Via Altitude Latitude Longitude Leg Dist Tot Dist Heading (true) Name
O USRR FIX - 0 ft / 0 m 61.34333˚ 73.40333˚ - 0 nm - -
KANER FIX - 0 ft / 0 m 61.00000˚ 71.86667˚ 49 nm 49 nm 246° / 244° -
O SOGNA FIX - 0 ft / 0 m 61.01667˚ 70.95000˚ 26 nm 75 nm 273° / 272° -

Altitude Profile

Advertisement - Login to hide

USRR

Details ICAO USRR (SGC)
Name SURGUT
Region Russia
Timezone Asia/Yekaterinburg (UTC+5.0)
Stats Elevation 200 ft / 61 m (AMSL)
Location 61.343693° 73.401842°
Runways 1
Magnetic Variation 17.101° E

METAR

USRR 181830Z 24006MPS 7000 NSC M07/M15 Q1024 R25/420345 NOSIG RMK QFE763

Decode

TAF

TAF TAF USRR 181655Z 1818/1918 23007G14MPS 9999 SCT030

Decode

Departure Runways

ID Width Length Bearing (true) Bearing (mag) Surface Threshold Offset Overrun Length
07 148 ft / 45 m 9,112 ft / 2,778 m 89.72° 72.62° Asphalt 0 ft / 0 m 165 ft / 50 m
25 148 ft / 45 m 9,112 ft / 2,778 m 269.76° 252.66° Asphalt 0 ft / 0 m 165 ft / 50 m

USHH

Details ICAO USHH (HMA)
Name KHANTY MANSIYSK
Region Russia
Timezone Asia/Yekaterinburg (UTC+5.0)
Stats Elevation 141 ft / 43 m (AMSL)
Location 61.028482° 69.086067°
Runways 1
Magnetic Variation 17.771° E

METAR

USHH 181830Z 24008MPS CAVOK M05/M12 Q1026 R24/421050 NOSIG RMK QFE766

Decode

TAF

TAF USHH 181700Z 1818/1918 22006G14MPS 9999 DRSN SCT020 TEMPO 1818/1912 3100 -SHSN BLSN SCT011CB TEMPO 1912/1918 2000 SHSN BKN007CB

Decode

Destination Runways

ID Width Length Bearing (true) Bearing (mag) Surface Threshold Offset Overrun Length
06 148 ft / 45 m 9,154 ft / 2,790 m 75.33° 57.56° Asphalt 0 ft / 0 m 195 ft / 59 m
24 148 ft / 45 m 9,154 ft / 2,790 m 255.38° 237.61° Asphalt 0 ft / 0 m 195 ft / 59 m

Approach Navaids

Runway Type Ident Frequency Range Bearing (true) Bearing (mag) Slope Elevation
06 Localiser IBD 111.90 MHz 18 nm / 33 km 75.47° 57.70° - 141 ft / 43 m (AMSL)
06 Glidescope IBD 111.90 MHz 10 nm / 19 km 75.36° 57.58° 3.00° 141 ft / 43 m (AMSL)
24 Localiser IZJ 110.10 MHz 18 nm / 33 km 255.37° 237.60° - 141 ft / 43 m (AMSL)
24 Glidescope IZJ 110.10 MHz 10 nm / 19 km 255.35° 237.58° 3.00° 141 ft / 43 m (AMSL)

Popular Alternatives